Flag for Austria Weather past 2 weeks in Waidhofen an der Ybbs, Lower Austria, Austria

Now
45 °F

Cool.


Feels Like: 45 °F
Forecast: 34 / 55 °F
Wind: 1 mph from Southwest

Location: Amstetten

Current Time: Oct 26, 2014 at 1:42:09 AM

Latest Report: Oct 26, 2014 at 1:00 AM


Visibility: N/A

Pressure: 30.32 "Hg

Humidity: 95%

Dew point: 44 °F

Location of Waidhofen an der YbbsLocation

Historic Weather in Waidhofen an der Ybbs — Graph

°F

Waidhofen an der Ybbs temperature yesterday

Maximum temperature yesterday: 48 °F (at 4:00 PM)
Minimum temperature yesterday: 40 °F (at 7:00 AM)
Average temperature yesterday: 44 °F

Past Weeks' High & Low Weather Summary

 TemperatureHumidityPressure
High72 °F (Oct 12, 3:00 PM)100% (Oct 12, 8:00 AM)30.32 "Hg (Oct 12, 8:00 AM)
Low40 °F (Oct 25, 7:00 AM)56% (Oct 14, 3:00 PM)29.63 "Hg (Oct 21, 11:00 PM)
Average54 °F91%30.00 "Hg
* Reported Midnight between Oct 10 and Oct 11 — Midnight between Oct 25 and Oct 26, Waidhofen an der Ybbs, Weather by CustomWeather, © 2014

Note: Actual official high and low records may vary slightly from our data, if they occured in-between our weather recording intervals... More about our weather records

Advertising

Waidhofen an der Ybbs weather history for previous 24 hours

 ConditionsComfort  
Time TempWeatherWind HumidityBarometerVisibility
12:00 AM
Oct 26
46 °FCool.No wind91%30.31 "HgN/A
11:00 PM
Oct 25
46 °FCool.1 mph89%30.30 "HgN/A
10:00 PM46 °FCool.1 mph89%30.29 "HgN/A
9:00 PM47 °FCool.1 mph86%30.27 "HgN/A
8:00 PM47 °FCool.1 mph84%30.26 "HgN/A
7:00 PM47 °FCool.2 mph86%30.25 "HgN/A
6:00 PM46 °FCool.1 mph88%30.23 "HgN/A
5:00 PM47 °FCool.2 mph83%30.22 "HgN/A
4:00 PM48 °FCool.3 mph83%30.21 "HgN/A
3:00 PM47 °FCool.3 mph82%30.22 "HgN/A
2:00 PM47 °FCool.3 mph82%30.22 "HgN/A
1:00 PM45 °FCool.5 mph84%30.23 "HgN/A
12:00 PM44 °FQuite cool.5 mph84%30.25 "HgN/A
11:00 AM43 °FQuite cool.3 mph84%30.24 "HgN/A
10:00 AM42 °FQuite cool.5 mph85%30.24 "HgN/A
9:00 AM40 °FQuite cool.2 mph89%30.24 "HgN/A
8:00 AM40 °FChilly.2 mph90%30.23 "HgN/A
7:00 AM40 °FChilly.2 mph88%30.22 "HgN/A
6:00 AM41 °FQuite cool.3 mph88%30.21 "HgN/A
5:00 AM41 °FQuite cool.3 mph88%30.20 "HgN/A
4:00 AM41 °FQuite cool.2 mph91%30.20 "HgN/A
3:00 AM42 °FQuite cool.3 mph85%30.22 "HgN/A
2:00 AM43 °FQuite cool.3 mph86%30.22 "HgN/A
1:00 AM44 °FQuite cool.3 mph88%30.22 "HgN/A
Weather by CustomWeather, © 2014

See weather overviewHow to use our weather pages